Date String (YYYY-MM-DD hh:mm:ss) UTC,Instrument flags,absolute air pressure of the measurement (hPa),sample flow rate (lpm),inlet stack bypass flow (lpm),air temperature of the measurement (°C),ambient temperature measured by the external sensor (°C),aerosol sample conditioner tube jacket temperature (°C),OPC LED temperature (°C),internal box temperature (°C),relative humidity of the measurement (%),span deviation,mass concentration of particles derived from Lorenz-Mie calculation of OPC scattering (μg/m³),mass concentration of particles derived from Lorenz-Mie calculation of OPC scattering (μg/m³),mass concentration of particles derived from Lorenz-Mie calculation of OPC scattering (μg/m³)
DateTimeUTC,F1_M11,P_M11,Q1_M11,Q2_M11,T1_M11,T2_M11,T3_M11,T4_M11,T5_M11,U1_M11,ZSPAN_M11,X0_M11,X2_M11,X1_M11
2024-04-21 12:00:00,SystemResetWarning,0836.2,5.00,000.00,018.2,017.5,000.0,026.9,020.0,022.5,0000.5,0009.36,0007.00,0006.81
2024-04-21 12:01:00,SystemResetWarning,0836.2,5.01,000.00,018.3,017.6,000.0,027.0,020.1,022.4,0000.5,0009.27,0006.97,0006.78
2024-04-21 12:02:00,SystemResetWarning,0836.2,5.02,000.00,018.4,018.2,000.0,027.0,020.5,022.3,0000.5,0009.29,0006.96,0006.78
2024-04-21 12:03:00,SystemResetWarning,0836.3,5.00,000.00,018.6,018.9,000.0,027.1,020.9,022.0,0000.7,0009.32,0006.96,0006.78
2024-04-21 12:04:00,SystemResetWarning,0836.3,5.00,000.00,018.7,018.8,000.0,027.1,020.8,021.9,0001.1,0009.34,0006.96,0006.77
2024-04-21 12:05:00,SystemResetWarning,0836.3,5.00,000.00,018.7,018.6,000.0,027.1,020.7,021.8,0001.1,0009.34,0006.95,0006.78
2024-04-21 12:06:00,SystemResetWarning,0836.2,5.00,000.00,018.7,018.5,000.0,027.1,020.6,021.8,0001.0,0009.28,0006.93,0006.77
2024-04-21 12:07:00,SystemResetWarning,0836.2,5.01,000.00,018.7,018.3,000.0,027.1,020.5,021.8,0000.8,0009.24,0006.91,0006.77
2024-04-21 12:08:00,SystemResetWarning,0836.3,5.01,000.00,018.7,018.2,000.0,027.1,020.4,021.9,0000.7,0009.23,0006.92,0006.80
2024-04-21 12:09:00,SystemResetWarning,0836.3,4.99,000.00,018.7,018.2,000.0,027.1,020.4,021.9,0000.7,0009.26,0006.95,0006.82
2024-04-21 12:10:00,SystemResetWarning,0836.3,4.99,000.00,018.6,018.1,000.0,027.1,020.3,021.9,0000.4,0009.27,0006.96,0006.84
2024-04-21 12:11:00,SystemResetWarning,0836.3,4.99,000.00,018.6,018.1,000.0,027.1,020.3,022.0,0000.2,0009.33,0006.99,0006.85
2024-04-21 12:12:00,SystemResetWarning,0836.3,5.01,000.00,018.6,018.0,000.0,027.1,020.3,022.0,0000.3,0009.39,0007.02,0006.88
2024-04-21 12:13:00,SystemResetWarning,0836.3,5.00,000.00,018.6,018.0,000.0,027.1,020.3,022.0,0000.5,0009.35,0007.06,0006.92
2024-04-21 12:14:00,SystemResetWarning,0836.2,5.01,000.00,018.6,018.0,000.0,027.1,020.3,022.1,0000.6,0009.35,0007.10,0006.95
2024-04-21 12:15:00,SystemResetWarning,0836.2,5.00,000.00,018.6,017.9,000.0,027.1,020.3,022.1,0000.1,0009.40,0007.15,0007.01
2024-04-21 12:16:00,SystemResetWarning,0836.2,5.00,000.00,018.5,017.9,000.0,027.1,020.2,022.1,0000.1,0009.45,0007.20,0007.06
2024-04-21 12:17:00,SystemResetWarning,0836.3,5.00,000.00,018.5,017.9,000.0,027.1,020.2,022.2,0000.2,0009.55,0007.26,0007.11
2024-04-21 12:18:00,SystemResetWarning,0836.3,5.00,000.00,018.5,017.9,000.0,027.1,020.2,022.2,0000.8,0009.66,0007.34,0007.17
2024-04-21 12:19:00,SystemResetWarning,0836.3,5.00,000.00,018.5,017.9,000.0,027.1,020.2,022.2,0001.1,0009.80,0007.44,0007.24
2024-04-21 12:20:00,SystemResetWarning,0836.2,5.00,000.00,018.5,017.9,000.0,027.1,020.2,022.2,0001.0,0009.84,0007.48,0007.28
2024-04-21 12:21:00,SystemResetWarning,0836.3,5.00,000.00,018.5,017.8,000.0,027.1,020.2,022.2,0001.0,0009.91,0007.54,0007.34
2024-04-21 12:22:00,SystemResetWarning,0836.3,5.00,000.00,018.5,017.8,000.0,027.1,020.2,022.1,0001.1,0009.91,0007.56,0007.37
2024-04-21 12:23:00,SystemResetWarning,0836.4,5.01,000.00,018.5,017.8,000.0,027.0,020.2,022.2,0001.0,0009.89,0007.56,0007.39
2024-04-21 12:24:00,SystemResetWarning,0836.4,5.00,000.00,018.4,017.8,000.0,027.0,020.2,022.2,0000.6,0009.86,0007.55,0007.39
2024-04-21 12:25:00,SystemResetWarning,0836.4,5.00,000.00,018.4,017.8,000.0,027.0,020.2,022.2,0000.5,0009.92,0007.59,0007.44
2024-04-21 12:26:00,SystemResetWarning,0836.4,5.00,000.00,018.4,017.8,000.0,027.0,020.2,022.7,0000.3,0009.97,0007.61,0007.45
2024-04-21 12:27:00,SystemResetWarning,0836.4,5.00,000.00,018.4,017.8,000.0,027.0,020.2,023.9,0000.3,0010.01,0007.62,0007.44
2024-04-21 12:28:00,SystemResetWarning,0836.4,5.00,000.00,018.4,017.8,000.0,027.0,020.2,023.0,0000.4,0010.36,0007.62,0007.43
2024-04-21 12:29:00,SystemResetWarning,0836.4,5.00,000.00,018.4,017.8,000.0,027.0,020.2,022.6,0000.2,0010.59,0007.59,0007.42
2024-04-21 12:30:00,SystemResetWarning,0836.4,5.00,000.00,018.4,017.8,000.0,027.0,020.2,022.5,-000.1,0010.52,0007.53,0007.38
2024-04-21 12:31:00,SystemResetWarning,0836.4,5.00,000.00,018.4,017.8,000.0,027.0,020.2,022.4,0000.1,0010.49,0007.50,0007.36
2024-04-21 12:32:00,SystemResetWarning,0836.4,5.00,000.00,018.4,017.8,000.0,027.0,020.2,022.4,0000.2,0010.50,0007.49,0007.34
2024-04-21 12:33:00,SystemResetWarning,0836.4,4.99,000.00,018.4,017.8,000.0,027.0,020.2,022.4,0000.0,0010.53,0007.50,0007.34
2024-04-21 12:34:00,SystemResetWarning,0836.4,5.01,000.00,018.4,017.8,000.0,027.0,020.2,022.5,0000.1,0010.59,0007.54,0007.35
2024-04-21 12:35:00,SystemResetWarning,0836.4,5.00,000.00,018.4,017.8,000.0,027.0,020.2,022.5,0000.2,0010.62,0007.55,0007.36
2024-04-21 12:36:00,SystemResetWarning,0836.4,4.99,000.00,018.4,017.8,000.0,027.0,020.2,022.6,-000.1,0010.61,0007.52,0007.33
2024-04-21 12:37:00,SystemResetWarning,0836.4,5.00,000.00,018.4,017.9,000.0,027.0,020.2,022.6,-000.0,0010.53,0007.49,0007.32
2024-04-21 12:38:00,SystemResetWarning,0836.4,5.00,000.00,018.4,017.9,000.0,027.0,020.2,022.7,-000.0,0010.51,0007.48,0007.32
2024-04-21 12:39:00,SystemResetWarning,0836.4,5.00,000.00,018.4,017.9,000.0,027.0,020.2,022.8,0000.2,0010.21,0007.48,0007.33
2024-04-21 12:40:00,SystemResetWarning,0836.4,5.00,000.00,018.4,017.8,000.0,027.0,020.2,022.9,0000.4,0009.93,0007.51,0007.35
2024-04-21 12:41:00,SystemResetWarning,0836.4,5.00,000.00,018.4,017.8,000.0,027.0,020.2,023.0,0000.1,0010.00,0007.54,0007.36
2024-04-21 12:42:00,SystemResetWarning,0836.4,5.01,000.00,018.4,017.9,000.0,027.0,020.2,023.1,0000.1,0010.02,0007.55,0007.37
2024-04-21 12:43:00,SystemResetWarning,0836.5,5.01,000.00,018.4,017.9,000.0,027.0,020.2,023.2,0000.1,0010.08,0007.60,0007.41
2024-04-21 12:44:00,SystemResetWarning,0836.5,5.00,000.00,018.4,017.9,000.0,027.0,020.2,023.3,0000.5,0010.57,0007.63,0007.43
2024-04-21 12:45:00,SystemResetWarning,0836.5,5.00,000.00,018.4,017.9,000.0,027.0,020.2,023.3,0000.7,0010.68,0007.63,0007.44
2024-04-21 12:46:00,SystemResetWarning,0836.5,4.99,000.00,018.4,017.9,000.0,027.0,020.2,023.4,0000.6,0010.67,0007.64,0007.45
2024-04-21 12:47:00,SystemResetWarning,0836.5,5.00,000.00,018.4,017.9,000.0,027.0,020.2,023.5,0000.7,0010.74,0007.67,0007.47
2024-04-21 12:48:00,SystemResetWarning,0836.5,5.00,000.00,018.4,017.9,000.0,027.0,020.2,023.5,0000.9,0010.78,0007.70,0007.47
2024-04-21 12:49:00,SystemResetWarning,0836.4,5.01,000.00,018.4,017.9,000.0,027.0,020.2,023.6,0001.2,0010.82,0007.73,0007.50
2024-04-21 12:50:00,SystemResetWarning,0836.4,5.01,000.00,018.4,017.9,000.0,027.0,020.2,023.7,0001.2,0010.82,0007.76,0007.53
2024-04-21 12:51:00,SystemResetWarning,0836.4,5.01,000.00,018.4,017.9,000.0,027.0,020.2,023.7,0000.8,0010.87,0007.79,0007.55
2024-04-21 12:52:00,SystemResetWarning,0836.5,4.99,000.00,018.4,017.9,000.0,027.0,020.2,023.7,0001.1,0010.97,0007.81,0007.59
2024-04-21 12:53:00,SystemResetWarning,0836.5,4.99,000.00,018.4,017.9,000.0,027.0,020.2,023.7,0001.2,0011.05,0007.87,0007.63
2024-04-21 12:54:00,SystemResetWarning,0836.5,5.00,000.00,018.4,017.9,000.0,027.0,020.2,023.7,0001.1,0011.12,0007.90,0007.64
2024-04-21 12:55:00,SystemResetWarning,0836.5,5.01,000.00,018.4,017.9,000.0,026.9,020.2,023.7,0000.7,0010.82,0007.93,0007.68
2024-04-21 12:56:00,SystemResetWarning,0836.5,4.99,000.00,018.4,017.9,000.0,026.9,020.2,023.7,0000.7,0010.69,0007.97,0007.73
2024-04-21 12:57:00,SystemResetWarning,0836.5,5.00,000.00,018.4,017.9,000.0,026.9,020.2,023.7,0001.1,0010.79,0008.04,0007.79
2024-04-21 12:58:00,SystemResetWarning,0836.5,5.00,000.00,018.4,017.9,000.0,026.9,020.2,023.7,0001.3,0010.89,0008.12,0007.88
2024-04-21 12:59:00,SystemResetWarning,0836.5,5.00,000.00,018.4,017.9,000.0,026.9,020.2,023.6,0001.3,0011.07,0008.25,0008.01
